Regional Weather Roundup
Issued by NWS

Home | Current Version | Previous Version | Text Only | Print | Product List | Glossary Off
Versions: 1 2 3 4 5 6 7 8 9 10 11 12 13 14 15 16 17 18 19 20 21 22 23 24 25 26 27 28 29 30 31 32 33 34 35 36 37 38 39 40 41 42 43 44 45 46 47 48 49 50

000
ASUS45 KCYS 291010
RWRWY

WYOMING REGIONAL WEATHER ROUNDUP
NATIONAL WEATHER SERVICE CHEYENNE WY
300 AM MST THU JAN 29 2015

NOTE:  "FAIR" INDICATES FEW OR NO CLOUDS BELOW 12,000 FEET
WITH NO SIGNIFICANT WEATHER AND/OR OBSTRUCTIONS TO VISIBILITY.

WYZ001-291100-
YELLOWSTONE NATIONAL PARK

CITY           SKY/WX    TMP DP  RH WIND       PRES   REMARKS
LK YELLOWSTONE   N/A     21  18  88 CALM      30.42R
W YELLOWSTONE  NOT AVBL

$$
WYZ002>013-054>058-071-098>099-291100-
NORTHERN WYOMING

CITY           SKY/WX    TMP DP  RH WIND       PRES   REMARKS
JACKSON        FAIR      18  18 100 N7        30.42R WCI   8
CODY           FAIR      30  28  93 CALM      30.40S
GREYBULL       CLOUDY    31  31 100 SE5       30.42S FOG     WCI  26
WORLAND        CLOUDY    32  28  85 S3        30.42R
SHERIDAN       FAIR      27  22  81 S6        30.43R WCI  20
BUFFALO        FAIR      26  20  77 W7        30.42R WCI  18
GILLETTE       FAIR      24  19  81 NW6       30.42R WCI  17
HULETT           N/A    N/A N/A N/A MISG        N/A
NEWCASTLE      FAIR      28  23  80 NW9       30.40S WCI  20

$$
WYZ014>020-022>026-101>103-291100-
CENTRAL WYOMING

CITY           SKY/WX    TMP DP  RH WIND       PRES   REMARKS
BIG PINEY      FAIR      18  14  84 S6        30.40R WCI  10
PINEDALE       CLOUDY    18  16  93 NW6       30.41R WCI   9
DUBOIS         FAIR      21  18  86 W8        30.40R WCI  12
LANDER         CLOUDY    35  29  78 CALM      30.39R
RIVERTON       CLOUDY    34  27  75 NE3       30.41R
CASPER         CLOUDY    32  28  85 NE6       30.42S WCI  26
DOUGLAS        CLOUDY    33  23  66 NW5       30.44R WCI  29

$$
WYZ021-027>030-104>119-291100-
SOUTHERN WYOMING

CITY           SKY/WX    TMP DP  RH WIND       PRES   REMARKS
EVANSTON       CLOUDY    31  28  89 CALM      30.40R
KEMMERER       CLOUDY    25  23  93 N7        30.40S WCI  17
FORT BRIDGER   FAIR      30  30 100 W7        30.43R WCI  23
ROCK SPRINGS   CLOUDY    30  28  92 SW3       30.40R
DIXON          CLOUDY    33  32  96 CALM      30.40R
RAWLINS        CLOUDY    31  29  92 E6        30.40R WCI  25
SARATOGA       FLURRIES  32  30  93 NW7       30.38R WCI  26
LARAMIE        FLURRIES  28  26  92 N5        30.37S WCI  23
CHEYENNE       CLOUDY    34  23  64 N15G22    30.38R WCI  24
TORRINGTON     FAIR      34  26  72 NW12      30.40R WCI  25
PINE BLUFFS    CLOUDY    34  27  75 N14       30.39R WCI  24

$$


USA.gov is the U.S. government's official web portal to all federal, state and local government web resources and services.